Cape Neddick Weather Center

Moon Phase Calendar



Online Cameras

 


      

Current Conditions in Cape Neddick
10/23/2020 11:24:40 PM

56°F
Feels Like 54
Clouds
Humidity
93%
Pressure
30.06"
Wind
5.8 mph (S)
Dew Point
54°F
UV Index
3/10 (Moderate)
Visibility
6 mi

Hourly Forecast

Date & Time Fri, Oct 23
11:00 PM
Sat, Oct 24
12:00 AM
Sat, Oct 24
1:00 AM
Sat, Oct 24
2:00 AM
Sat, Oct 24
3:00 AM
Sat, Oct 24
4:00 AM
Sat, Oct 24
5:00 AM
Sat, Oct 24
6:00 AM
Sat, Oct 24
7:00 AM
Sat, Oct 24
8:00 AM
Sat, Oct 24
9:00 AM
Sat, Oct 24
10:00 AM
Sat, Oct 24
11:00 AM
Sat, Oct 24
12:00 PM
Sat, Oct 24
1:00 PM
Sat, Oct 24
2:00 PM
Sat, Oct 24
3:00 PM
Sat, Oct 24
4:00 PM
Sat, Oct 24
5:00 PM
Sat, Oct 24
6:00 PM
Sat, Oct 24
7:00 PM
Sat, Oct 24
8:00 PM
Sat, Oct 24
9:00 PM
Sat, Oct 24
10:00 PM
Sat, Oct 24
11:00 PM
Sun, Oct 25
12:00 AM
Sun, Oct 25
1:00 AM
Sun, Oct 25
2:00 AM
Sun, Oct 25
3:00 AM
Sun, Oct 25
4:00 AM
Sun, Oct 25
5:00 AM
Sun, Oct 25
6:00 AM
Sun, Oct 25
7:00 AM
Sun, Oct 25
8:00 AM
Sun, Oct 25
9:00 AM
Sun, Oct 25
10:00 AM
Sun, Oct 25
11:00 AM
Sun, Oct 25
12:00 PM
Sun, Oct 25
1:00 PM
Sun, Oct 25
2:00 PM
Sun, Oct 25
3:00 PM
Sun, Oct 25
4:00 PM
Sun, Oct 25
5:00 PM
Sun, Oct 25
6:00 PM
Sun, Oct 25
7:00 PM
Sun, Oct 25
8:00 PM
Sun, Oct 25
9:00 PM
Sun, Oct 25
10:00 PM
Condition
Clouds

Clouds

Clouds

Clouds

Clouds

Clouds

Clouds

Clouds

Clouds

Clouds

Clouds

Clouds

Clouds

Clouds

Clouds

Clouds

Clear

Rain

Clouds

Clouds

Clouds

Clouds

Clouds

Clouds

Clouds

Clouds

Clouds

Clouds

Clear

Clouds

Clouds

Clouds

Clouds

Clouds

Clouds

Clouds

Clouds

Clouds

Clouds

Clouds

Clouds

Clouds

Clouds

Clouds

Clouds

Clouds

Clouds

Clouds
Temperature 56°F56°F56°F56°F55°F55°F54°F54°F54°F54°F56°F58°F60°F62°F63°F66°F66°F65°F64°F60°F56°F54°F52°F49°F47°F45°F44°F43°F43°F42°F42°F42°F42°F42°F43°F44°F46°F48°F48°F48°F47°F47°F46°F44°F44°F45°F45°F46°F
Feels Like 54°F53°F53°F53°F52°F52°F51°F50°F49°F50°F53°F55°F56°F58°F61°F64°F64°F64°F60°F55°F50°F49°F45°F42°F40°F38°F37°F37°F36°F35°F34°F34°F33°F34°F35°F37°F39°F42°F44°F43°F41°F40°F39°F37°F37°F37°F37°F37°F
Cloudiness 90%81%77%76%48%48%39%32%25%22%15%34%40%33%46%43%3%19%16%13%14%20%59%40%30%23%18%16%8%16%27%36%43%50%88%91%88%86%88%90%100%100%100%100%100%100%100%100%
Visibility 6 mi6 mi6 mi6 mi6 mi6 mi6 mi6 mi6 mi6 mi6 mi6 mi6 mi6 mi6 mi6 mi6 mi6 mi6 mi6 mi6 mi6 mi6 mi6 mi6 mi6 mi6 mi6 mi6 mi6 mi6 mi6 mi6 mi6 mi6 mi6 mi6 mi6 mi6 mi6 mi6 mi6 mi6 mi6 mi6 mi6 mi6 mi6 mi
Precipitation 0%0%0%0%0%0%0%0%0%0%0%0%0%0%0%0%30%46%32%20%8%0%0%0%0%0%0%0%0%0%0%0%0%0%0%0%0%0%0%0%0%0%0%0%0%0%0%0%
Humidity 93%92%92%92%95%95%95%94%93%91%88%86%82%80%80%75%74%79%78%78%80%78%75%74%74%75%75%76%76%75%74%73%72%70%67%63%60%55%53%53%54%55%57%61%60%59%58%57%
Dew Point 54°F54°F54°F54°F54°F53°F53°F52°F52°F52°F53°F54°F55°F56°F57°F58°F58°F59°F57°F53°F50°F48°F44°F41°F39°F38°F37°F36°F36°F35°F35°F34°F34°F33°F33°F33°F33°F33°F32°F31°F31°F31°F31°F31°F30°F30°F30°F31°F
Pressure 30.06"30.06"30.06"30.03"30"30"29.97"29.97"29.94"29.91"29.91"29.88"29.85"29.85"29.83"29.83"29.83"29.83"29.83"29.85"29.88"29.91"29.94"29.97"29.97"30"30.03"30.06"30.09"30.12"30.15"30.18"30.18"30.21"30.21"30.24"30.24"30.24"30.24"30.24"30.24"30.27"30.27"30.27"30.3"30.33"30.33"30.33"
Wind Speed 5.8 mph6.6 mph7.4 mph7.7 mph7.3 mph7.2 mph7.5 mph8.1 mph8.2 mph8.1 mph7.9 mph7.6 mph10.3 mph10.4 mph8.2 mph7.6 mph8.1 mph7.2 mph10.8 mph10.7 mph10.1 mph8.7 mph9 mph9.2 mph8.9 mph7.8 mph7 mph6.5 mph7.1 mph8 mph8.6 mph9.2 mph9.7 mph8.9 mph8.6 mph7.4 mph5.6 mph3.5 mph1.7 mph2.3 mph4.4 mph4.8 mph5.6 mph6.3 mph6.6 mph6.8 mph7.7 mph9.1 mph
Wind
Direction
169°
S
172°
S
177°
S
182°
S
191°
S
192°
SSW
194°
SSW
200°
SSW
199°
SSW
210°
SSW
210°
SSW
199°
SSW
196°
SSW
207°
SSW
208°
SSW
210°
SSW
225°
SW
267°
W
297°
WNW
308°
NW
343°
NNW
336°
NNW
334°
NNW
335°
NNW
337°
NNW
338°
NNW
336°
NNW
346°
NNW
353°
N

N
10°
N
10°
N
10°
N
14°
NNE
14°
NNE
12°
NNE
12°
NNE
16°
NNE
43°
NE
83°
E
102°
ESE
106°
ESE
101°
E
119°
ESE
107°
ESE
99°
E
96°
E
94°
E

Daily Forecast

Date High Low Precip. Humidity
Today
Oct 23

Clouds
59 °F
54 °F
0%
76%
Saturday
Oct 24

Rain
66 °F
47 °F
32%
82%
Sunday
Oct 25

Clouds
48 °F
42 °F
0%
60%
Monday
Oct 26

Rain
54 °F
48 °F
77%
79%
Tuesday
Oct 27

Rain
53 °F
42 °F
100%
72%
Wednesday
Oct 28

Rain
50 °F
40 °F
100%
83%
Thursday
Oct 29

Rain
56 °F
41 °F
86%
75%
Friday
Oct 30

Clear
40 °F
29 °F
0%
71%
Saturday
Oct 31

Clear
48 °F
32 °F
0%
57%
Sunday
Nov 1

Clouds
54 °F
40 °F
0%
65%
Monday
Nov 2

Clouds
47 °F
33 °F
3%
69%
Tuesday
Nov 3

Clear
41 °F
32 °F
0%
73%
Wednesday
Nov 4

Rain
43 °F
37 °F
100%
70%
Thursday
Nov 5

Rain
52 °F
36 °F
100%
59%
Friday
Nov 6

Clear
51 °F
43 °F
0%
61%
Saturday
Nov 7

Clouds
59 °F
42 °F
0%
68%


Temperature 8-14 Day Outlook



Precipitation 8-14 Day Outlook




Quick Links
Cape Neddick News
Cape Neddick Photos
Cape Neddick Videos




About Us
Contact Us
Site Map
Search Site
Advertise With Us
   
CapeNeddick.USCoast.info
THE CAPE NEDDICK WEBSITE

Copyright 2020, Coastal Town
Privacy    |    Legal